RYR22PK EGNM-EPGD

Flight info

Callsign RYR22PK
Flight time N/A
Altitude 35000
Route LAMIX L603 LAMSO DCT VALAM DCT EEL DCT BERIM DCT BINKA DCT LUXAL L730 KOSEX
Aircraft B738/M-SDE2E3FGHIRWXY/LB1

Departure

Time 2026-05-05 15:40
Airport Leeds Bradford Airport (EGNM)

Arrival

Time N/A
Airport Gdańsk Lech Wałęsa Airport (EPGD)
Time Latitude Longitude Altitude Speed Heading
2026-05-05 15:27 53.86879 -1.65760 664 ft 0 kts
2026-05-05 15:32 53.86878 -1.65760 664 ft 2 kts
2026-05-05 15:32 53.86852 -1.65762 664 ft 4 kts
2026-05-05 15:32 53.86828 -1.65767 664 ft 3 kts 20°
2026-05-05 15:32 53.86815 -1.65781 663 ft 2 kts 64°
2026-05-05 15:33 53.86812 -1.65799 661 ft 2 kts 84°
2026-05-05 15:33 53.86811 -1.65818 664 ft 2 kts 90°
2026-05-05 15:33 53.86812 -1.65837 662 ft 2 kts 92°
2026-05-05 15:33 53.86812 -1.65838 662 ft 0 kts 92°
2026-05-05 15:35 53.86811 -1.65799 661 ft 8 kts 86°
2026-05-05 15:36 53.86817 -1.65656 663 ft 14 kts 89°
2026-05-05 15:36 53.86814 -1.65495 662 ft 13 kts 91°
2026-05-05 15:36 53.86766 -1.65414 660 ft 12 kts 184°
2026-05-05 15:36 53.86683 -1.65421 660 ft 13 kts 183°
2026-05-05 15:37 53.86592 -1.65430 664 ft 14 kts 183°
2026-05-05 15:37 53.86528 -1.65436 667 ft 16 kts 183°
2026-05-05 15:37 53.86398 -1.65449 675 ft 19 kts 183°
2026-05-05 15:37 53.86226 -1.65460 679 ft 19 kts 171°
2026-05-05 15:38 53.86102 -1.65306 678 ft 26 kts 139°
2026-05-05 15:38 53.85963 -1.65093 670 ft 25 kts 137°
2026-05-05 15:38 53.85911 -1.64950 664 ft 17 kts 110°
2026-05-05 15:38 53.85869 -1.64952 663 ft 6 kts 279°
2026-05-05 15:39 53.85891 -1.64982 663 ft 6 kts 332°
2026-05-05 15:39 53.85905 -1.65001 663 ft 0 kts 317°
2026-05-05 15:39 53.85935 -1.65048 667 ft 27 kts 317°
2026-05-05 15:40 53.86281 -1.65582 678 ft 106 kts 317°
2026-05-05 15:40 53.87002 -1.66692 691 ft 170 kts 321°
2026-05-05 15:40 53.87891 -1.68033 1670 ft 164 kts 321°
2026-05-05 15:40 53.88678 -1.69468 2646 ft 173 kts 309°
2026-05-05 15:41 53.89406 -1.71282 3112 ft 200 kts 314°
2026-05-05 15:41 53.90138 -1.73350 3590 ft 214 kts 284°
2026-05-05 15:41 53.89938 -1.75818 4111 ft 221 kts 244°
2026-05-05 15:41 53.89265 -1.78152 4774 ft 219 kts 248°
2026-05-05 15:42 53.88337 -1.80302 4992 ft 240 kts 215°
2026-05-05 15:42 53.86741 -1.81197 5471 ft 247 kts 180°
2026-05-05 15:42 53.85091 -1.80424 6069 ft 249 kts 148°
2026-05-05 15:42 53.83709 -1.78673 6644 ft 256 kts 139°
2026-05-05 15:43 53.82312 -1.76595 6950 ft 274 kts 138°
2026-05-05 15:43 53.80861 -1.74399 7005 ft 285 kts 138°
2026-05-05 15:43 53.79389 -1.72191 7045 ft 280 kts 138°
2026-05-05 15:43 53.77933 -1.69987 7365 ft 281 kts 138°
2026-05-05 15:44 53.76470 -1.67758 8141 ft 283 kts 138°
2026-05-05 15:44 53.74990 -1.65507 8852 ft 292 kts 139°
2026-05-05 15:44 53.73467 -1.63191 9594 ft 297 kts 139°
2026-05-05 15:44 53.71921 -1.60843 10334 ft 301 kts 139°
2026-05-05 15:45 53.70309 -1.58402 10652 ft 322 kts 139°
2026-05-05 15:45 53.68586 -1.55795 10915 ft 341 kts 139°
2026-05-05 15:45 53.66799 -1.53092 11521 ft 349 kts 139°
2026-05-05 15:45 53.64982 -1.50347 12264 ft 352 kts 139°
2026-05-05 15:46 53.63153 -1.47587 13002 ft 355 kts 139°
2026-05-05 15:46 53.61319 -1.44823 13743 ft 359 kts 140°
2026-05-05 15:46 53.59442 -1.41997 14404 ft 362 kts 140°
2026-05-05 15:46 53.57558 -1.39164 15058 ft 366 kts 140°
2026-05-05 15:47 53.55651 -1.36299 15730 ft 369 kts 140°
2026-05-05 15:47 53.53726 -1.33413 16380 ft 372 kts 140°
2026-05-05 15:47 53.51780 -1.30501 17007 ft 376 kts 140°
2026-05-05 15:47 53.49835 -1.27512 17634 ft 381 kts 135°
2026-05-05 15:48 53.48369 -1.23775 18225 ft 389 kts 113°
2026-05-05 15:48 53.47598 -1.19449 18809 ft 392 kts 109°
2026-05-05 15:48 53.46495 -1.15259 19323 ft 393 kts 121°
2026-05-05 15:48 53.45088 -1.11314 19865 ft 395 kts 124°
2026-05-05 15:49 53.43619 -1.07404 20402 ft 398 kts 124°
2026-05-05 15:49 53.42161 -1.03409 20944 ft 402 kts 123°
2026-05-05 15:49 53.40748 -0.99359 21476 ft 405 kts 122°
2026-05-05 15:49 53.39341 -0.95231 21998 ft 408 kts 122°
2026-05-05 15:50 53.37942 -0.91065 22525 ft 411 kts 121°
2026-05-05 15:50 53.36599 -0.86823 23034 ft 414 kts 120°
2026-05-05 15:50 53.35275 -0.82523 23541 ft 417 kts 120°
2026-05-05 15:50 53.33936 -0.78186 23971 ft 419 kts 120°
2026-05-05 15:51 53.32581 -0.73847 24430 ft 421 kts 120°
2026-05-05 15:51 53.31223 -0.69518 24882 ft 422 kts 119°
2026-05-05 15:51 53.30102 -0.65018 25278 ft 427 kts 110°
2026-05-05 15:51 53.29218 -0.60262 25702 ft 429 kts 109°
2026-05-05 15:52 53.28368 -0.55484 26108 ft 431 kts 109°
2026-05-05 15:52 53.27489 -0.50670 26503 ft 432 kts 109°
2026-05-05 15:52 53.26583 -0.45852 26886 ft 434 kts 110°
2026-05-05 15:52 53.25662 -0.41017 27269 ft 436 kts 110°
2026-05-05 15:53 53.24745 -0.36178 27644 ft 438 kts 110°
2026-05-05 15:53 53.23823 -0.31314 28002 ft 441 kts 110°
2026-05-05 15:53 53.22893 -0.26429 28349 ft 443 kts 110°
2026-05-05 15:53 53.21961 -0.21590 28692 ft 445 kts 110°
2026-05-05 15:54 53.21008 -0.16659 29022 ft 447 kts 110°
2026-05-05 15:54 53.20050 -0.11708 29345 ft 449 kts 110°
2026-05-05 15:54 53.19088 -0.06745 29667 ft 451 kts 111°
2026-05-05 15:54 53.18118 -0.01757 29971 ft 453 kts 111°
2026-05-05 15:55 53.17142 0.03267 30248 ft 455 kts 111°
2026-05-05 15:55 53.16167 0.08285 30508 ft 457 kts 111°
2026-05-05 15:55 53.15185 0.13330 30766 ft 458 kts 111°
2026-05-05 15:55 53.14199 0.18390 31022 ft 459 kts 111°
2026-05-05 15:56 53.13208 0.23458 31345 ft 459 kts 110°
2026-05-05 15:56 53.12232 0.28438 31711 ft 457 kts 110°
2026-05-05 15:56 53.11247 0.33452 32064 ft 456 kts 110°
2026-05-05 15:56 53.10259 0.38466 32369 ft 455 kts 110°
2026-05-05 15:57 53.09270 0.43465 32658 ft 455 kts 110°
2026-05-05 15:57 53.08278 0.48472 32987 ft 454 kts 110°
2026-05-05 15:57 53.07286 0.53466 33286 ft 454 kts 110°
2026-05-05 15:57 53.06293 0.58447 33574 ft 453 kts 110°
2026-05-05 15:58 53.05300 0.63424 33860 ft 453 kts 110°
2026-05-05 15:58 53.04305 0.68394 34138 ft 452 kts 110°
2026-05-05 15:58 53.03320 0.73301 34344 ft 452 kts 110°
2026-05-05 15:58 53.02313 0.78307 34534 ft 453 kts 111°
2026-05-05 15:59 53.01324 0.83210 34731 ft 453 kts 111°
2026-05-05 15:59 53.00322 0.88168 34935 ft 453 kts 111°
2026-05-05 15:59 52.99316 0.93134 34958 ft 457 kts 111°
2026-05-05 16:00 52.97424 1.03246 34967 ft 459 kts 104°
2026-05-05 16:00 52.96214 1.13596 34965 ft 455 kts 102°
2026-05-05 16:01 52.95099 1.23902 34968 ft 453 kts 103°
2026-05-05 16:01 52.93934 1.34171 34970 ft 452 kts 103°
2026-05-05 16:02 52.92740 1.44328 34973 ft 452 kts 104°
2026-05-05 16:02 52.91515 1.54577 34972 ft 454 kts 104°
2026-05-05 16:03 52.90279 1.64860 34973 ft 456 kts 104°
2026-05-05 16:03 52.89029 1.75179 34975 ft 458 kts 104°
2026-05-05 16:04 52.87764 1.85557 34970 ft 460 kts 104°
2026-05-05 16:04 52.86486 1.95961 34969 ft 462 kts 104°
2026-05-05 16:05 52.85192 2.06412 34971 ft 463 kts 104°
2026-05-05 16:05 52.83886 2.16881 34965 ft 463 kts 104°
2026-05-05 16:06 52.82574 2.27316 34964 ft 463 kts 104°
2026-05-05 16:06 52.81256 2.37734 34966 ft 462 kts 104°
2026-05-05 16:07 52.80000 2.48167 34954 ft 463 kts 98°
2026-05-05 16:07 52.80259 2.58713 34970 ft 465 kts 83°
2026-05-05 16:08 52.81308 2.69277 34960 ft 464 kts 82°
2026-05-05 16:08 52.82343 2.79816 34957 ft 463 kts 83°
2026-05-05 16:09 52.83325 2.90324 34959 ft 462 kts 83°
2026-05-05 16:09 52.84277 3.00851 34964 ft 462 kts 83°
2026-05-05 16:10 52.85215 3.11361 34962 ft 461 kts 83°
2026-05-05 16:10 52.86138 3.21809 34964 ft 461 kts 83°
2026-05-05 16:11 52.87060 3.32332 34968 ft 462 kts 83°
2026-05-05 16:12 52.88877 3.53410 34968 ft 463 kts 84°
2026-05-05 16:13 52.91102 3.79845 34957 ft 464 kts 84°
2026-05-05 16:13 52.91973 3.90397 34949 ft 465 kts 84°
2026-05-05 16:14 52.94486 4.11475 34942 ft 467 kts 79°
2026-05-05 16:15 52.97181 4.32503 34940 ft 467 kts 81°
2026-05-05 16:16 52.99756 4.53636 34939 ft 467 kts 81°
2026-05-05 16:17 53.01666 4.69538 34939 ft 468 kts 81°
2026-05-05 16:18 53.03550 4.85403 34939 ft 469 kts 81°
2026-05-05 16:19 53.05426 5.01397 34939 ft 470 kts 82°
2026-05-05 16:19 53.07286 5.17444 34937 ft 472 kts 82°
2026-05-05 16:20 53.09734 5.38889 34931 ft 474 kts 82°
2026-05-05 16:22 53.12565 5.64140 34936 ft 477 kts 82°
2026-05-05 16:23 53.14964 5.85942 34936 ft 479 kts 82°
2026-05-05 16:23 53.16733 6.02283 34934 ft 480 kts 82°
2026-05-05 16:24 53.17906 6.13237 34939 ft 480 kts 82°
2026-05-05 16:25 53.19650 6.29708 34938 ft 480 kts 83°
2026-05-05 16:25 53.21373 6.46210 34930 ft 481 kts 83°
2026-05-05 16:26 53.23625 6.68145 34928 ft 481 kts 83°
2026-05-05 16:27 53.24740 6.79159 34935 ft 481 kts 83°
2026-05-05 16:27 53.25847 6.90203 34927 ft 482 kts 83°
2026-05-05 16:28 53.26944 7.01251 34934 ft 482 kts 83°
2026-05-05 16:28 53.28032 7.12321 34931 ft 483 kts 83°
2026-05-05 16:29 53.29111 7.23417 34941 ft 483 kts 83°
2026-05-05 16:29 53.30182 7.34525 34929 ft 484 kts 83°
2026-05-05 16:30 53.31243 7.45650 34929 ft 485 kts 83°
2026-05-05 16:30 53.32289 7.56733 34931 ft 485 kts 83°
2026-05-05 16:31 53.33332 7.67902 34911 ft 486 kts 83°
2026-05-05 16:31 53.34365 7.79074 34911 ft 487 kts 83°
2026-05-05 16:32 53.35391 7.90295 34911 ft 487 kts 83°
2026-05-05 16:32 53.36073 7.97819 34912 ft 487 kts 83°
2026-05-05 16:33 53.37057 8.08776 34913 ft 488 kts 83°
2026-05-05 16:33 53.38056 8.20021 34911 ft 488 kts 83°
2026-05-05 16:34 53.39045 8.31274 34905 ft 488 kts 83°
2026-05-05 16:34 53.40025 8.42552 34901 ft 488 kts 83°
2026-05-05 16:35 53.40994 8.53821 34904 ft 489 kts 83°
2026-05-05 16:35 53.41953 8.65114 34899 ft 489 kts 83°
2026-05-05 16:36 53.42900 8.76396 34900 ft 489 kts 83°
2026-05-05 16:36 53.43840 8.87726 34893 ft 490 kts 83°
2026-05-05 16:37 53.44766 8.99021 34899 ft 490 kts 84°
2026-05-05 16:37 53.45685 9.10366 34893 ft 490 kts 84°
2026-05-05 16:38 53.46563 9.21327 34902 ft 490 kts 84°
2026-05-05 16:38 53.47456 9.32625 34899 ft 490 kts 84°
2026-05-05 16:39 53.48200 9.42140 34903 ft 490 kts 84°
2026-05-05 16:40 53.48789 9.49747 34905 ft 491 kts 84°
2026-05-05 16:40 53.49661 9.61127 34909 ft 491 kts 84°
2026-05-05 16:41 53.50516 9.72431 34913 ft 491 kts 84°
2026-05-05 16:41 53.51366 9.83817 34909 ft 491 kts 84°
2026-05-05 16:42 53.52206 9.95205 34914 ft 491 kts 84°
2026-05-05 16:42 53.53036 10.06630 34909 ft 492 kts 84°
2026-05-05 16:43 53.53854 10.18033 34911 ft 492 kts 84°
2026-05-05 16:43 53.54660 10.29414 34907 ft 492 kts 84°
2026-05-05 16:44 53.55457 10.40843 34907 ft 492 kts 84°
2026-05-05 16:44 53.56244 10.52277 34909 ft 492 kts 84°
2026-05-05 16:45 53.57021 10.63740 34913 ft 492 kts 84°
2026-05-05 16:45 53.57834 10.75196 34908 ft 492 kts 82°
2026-05-05 16:46 53.59027 10.86457 34918 ft 492 kts 79°
2026-05-05 16:46 53.60348 10.97784 34903 ft 492 kts 79°
2026-05-05 16:47 53.61623 11.09125 34911 ft 492 kts 80°
2026-05-05 16:47 53.62844 11.20469 34908 ft 492 kts 80°
2026-05-05 16:48 53.64040 11.31817 34901 ft 492 kts 80°
2026-05-05 16:48 53.65226 11.43189 34906 ft 492 kts 80°
2026-05-05 16:49 53.66402 11.54558 34908 ft 492 kts 80°
2026-05-05 16:49 53.67570 11.65945 34896 ft 492 kts 81°
2026-05-05 16:50 53.68726 11.77326 34912 ft 492 kts 81°
2026-05-05 16:50 53.69873 11.88729 34897 ft 492 kts 81°
2026-05-05 16:51 53.71000 12.00041 34908 ft 492 kts 81°
2026-05-05 16:51 53.72127 12.11471 34907 ft 492 kts 81°
2026-05-05 16:52 53.73242 12.22898 34907 ft 492 kts 81°
2026-05-05 16:52 53.74338 12.34253 34911 ft 493 kts 81°
2026-05-05 16:53 53.75442 12.45803 34922 ft 504 kts 81°
2026-05-05 16:53 53.76560 12.57625 34918 ft 514 kts 81°
2026-05-05 16:54 53.77682 12.69629 34907 ft 518 kts 81°
2026-05-05 16:54 53.78798 12.81697 34898 ft 519 kts 81°
2026-05-05 16:55 53.79909 12.93848 34905 ft 520 kts 81°
2026-05-05 16:55 53.81001 13.05931 34900 ft 519 kts 82°
2026-05-05 16:56 53.82079 13.18005 34903 ft 517 kts 82°
2026-05-05 16:56 53.83139 13.30021 34901 ft 516 kts 82°
2026-05-05 16:57 53.84188 13.42044 34906 ft 515 kts 82°
2026-05-05 16:57 53.85213 13.53943 34888 ft 509 kts 82°
2026-05-05 16:58 53.85720 13.59881 34885 ft 497 kts 82°
2026-05-05 16:58 53.86204 13.65580 34897 ft 494 kts 82°
2026-05-05 16:58 53.87244 13.76294 34894 ft 490 kts 76°